| time (UTC) | temp C | wind direction | speed KPH | gust KPH | rain 1hr cm | rain 24hr cm | rain mn cm | humidity % | barometer mb |
| 20260504025558 | 4 | 0.0 | 0.0 | 0.00 | 0.00 | 0.00 | 73 | 1022.9 | |
| 20260504024558 | 5 | 0.0 | 0.0 | 0.00 | 0.00 | 0.00 | 70 | 1023.0 | |
| 20260504023618 | 5 | 0.0 | 0.0 | 0.00 | 0.00 | 0.00 | 69 | 1022.7 | |
| 20260504022558 | 5 | 0.0 | 0.0 | 0.00 | 0.00 | 0.00 | 68 | 1022.7 | |
| 20260504021558 | 5 | 0.0 | 0.0 | 0.00 | 0.00 | 0.00 | 69 | 1022.7 | |
| 20260504020559 | 5 | 0.0 | 0.0 | 0.00 | 0.00 | 0.00 | 69 | 1022.6 | |
| 20260504015558 | 5 | 0.0 | 0.0 | 0.00 | 0.00 | 0.00 | 68 | 1022.3 | |
| 20260504014617 | 6 | 0.0 | 0.0 | 0.00 | 0.00 | 0.00 | 64 | 1022.1 | |
| 20260504013638 | 6 | 0.0 | 0.0 | 0.00 | 0.00 | 0.00 | 65 | 1021.9 | |
| 20260504012558 | 7 | 0.0 | 0.0 | 0.00 | 0.00 | 0.00 | 61 | 1021.6 | |
| 20260504011558 | 7 | 0.0 | 0.0 | 0.00 | 0.00 | 0.00 | 62 | 1021.5 | |
| 20260504010558 | 8 | 0.0 | 0.0 | 0.00 | 0.00 | 0.00 | 58 | 1021.5 | |
| 20260504005621 | 8 | 0.0 | 0.0 | 0.00 | 0.00 | 0.00 | 56 | 1021.3 | |
| 20260504004558 | 9 | 221 | 0.0 | 1.6 | 0.00 | 0.00 | 0.00 | 53 | 1021.2 |
| 20260504003558 | 10 | 0.0 | 0.0 | 0.00 | 0.00 | 0.00 | 50 | 1020.9 | |
| 20260504002558 | 10 | 0.0 | 0.0 | 0.00 | 0.00 | 0.00 | 48 | 1020.8 | |
| 20260504001559 | 11 | 288 | 1.6 | 3.2 | 0.00 | 0.00 | 0.00 | 51 | 1020.9 |
| 20260504000558 | 12 | 282 | 0.0 | 3.2 | 0.00 | 0.00 | 0.00 | 44 | 1020.7 |
| 20260503235559 | 12 | 227 | 0.0 | 1.6 | 0.00 | 0.00 | 0.00 | 40 | 1020.7 |
| 20260503234558 | 14 | 0.0 | 0.0 | 0.00 | 0.00 | 0.00 | 38 | 1020.5 | |
| 20260503233558 | 15 | 0.0 | 0.0 | 0.00 | 0.00 | 0.00 | 34 | 1020.5 | |
| 20260503232558 | 15 | 0.0 | 0.0 | 0.00 | 0.00 | 0.00 | 32 | 1020.4 | |
| 20260503231638 | 15 | 233 | 0.0 | 1.6 | 0.00 | 0.00 | 0.00 | 32 | 1020.2 |
| 20260503230558 | 15 | 0.0 | 1.6 | 0.00 | 0.00 | 0.00 | 32 | 1020.2 | |
| 20260503225558 | 15 | 298 | 1.6 | 3.2 | 0.00 | 0.00 | 0.00 | 31 | 1020.1 |
| 20260503224558 | 16 | 220 | 0.0 | 3.2 | 0.00 | 0.00 | 0.00 | 29 | 1020.1 |
| 20260503223559 | 16 | 243 | 1.6 | 3.2 | 0.00 | 0.00 | 0.00 | 28 | 1019.9 |
| 20260503222558 | 16 | 287 | 1.6 | 4.8 | 0.00 | 0.00 | 0.00 | 28 | 1020.0 |
| 20260503221558 | 17 | 237 | 1.6 | 3.2 | 0.00 | 0.00 | 0.00 | 28 | 1020.1 |
| 20260503220558 | 17 | 275 | 3.2 | 6.4 | 0.00 | 0.00 | 0.00 | 27 | 1020.1 |
| 20260503215558 | 17 | 236 | 0.0 | 4.8 | 0.00 | 0.00 | 0.00 | 27 | 1020.1 |
| 20260503214558 | 17 | 291 | 1.6 | 4.8 | 0.00 | 0.00 | 0.00 | 26 | 1020.2 |
| 20260503213558 | 17 | 244 | 3.2 | 9.7 | 0.00 | 0.00 | 0.00 | 27 | 1020.2 |
| 20260503212558 | 18 | 299 | 1.6 | 4.8 | 0.00 | 0.00 | 0.00 | 26 | 1020.2 |
| 20260503211558 | 17 | 248 | 1.6 | 6.4 | 0.00 | 0.00 | 0.00 | 27 | 1020.1 |
| 20260503210558 | 18 | 114 | 1.6 | 4.8 | 0.00 | 0.00 | 0.00 | 26 | 1020.2 |
| 20260503205618 | 18 | 214 | 1.6 | 4.8 | 0.00 | 0.00 | 0.00 | 27 | 1020.3 |
| 20260503204558 | 18 | 289 | 3.2 | 9.7 | 0.00 | 0.00 | 0.00 | 28 | 1020.5 |
| 20260503203558 | 17 | 214 | 1.6 | 4.8 | 0.00 | 0.00 | 0.00 | 26 | 1020.2 |
| 20260503202557 | 17 | 254 | 1.6 | 9.7 | 0.00 | 0.00 | 0.00 | 26 | 1020.4 |
| 20260503201558 | 17 | 292 | 4.8 | 6.4 | 0.00 | 0.00 | 0.00 | 26 | 1020.7 |
| 20260503200559 | 17 | 229 | 3.2 | 9.7 | 0.00 | 0.00 | 0.00 | 27 | 1020.8 |
| 20260503195557 | 17 | 229 | 3.2 | 9.7 | 0.00 | 0.00 | 0.00 | 28 | 1020.7 |
| 20260503194559 | 17 | 283 | 3.2 | 6.4 | 0.00 | 0.00 | 0.00 | 27 | 1020.9 |
| 20260503193558 | 17 | 67 | 1.6 | 11.3 | 0.00 | 0.00 | 0.00 | 28 | 1021.1 |
| 20260503192558 | 17 | 74 | 0.0 | 4.8 | 0.00 | 0.00 | 0.00 | 28 | 1021.2 |
| 20260503191558 | 16 | 39 | 1.6 | 6.4 | 0.00 | 0.00 | 0.00 | 29 | 1021.3 |
| 20260503190617 | 16 | 219 | 1.6 | 6.4 | 0.00 | 0.00 | 0.00 | 28 | 1021.5 |
| 20260503185558 | 16 | 232 | 3.2 | 9.7 | 0.00 | 0.00 | 0.00 | 28 | 1021.8 |
| 20260503184558 | 16 | 238 | 4.8 | 11.3 | 0.00 | 0.00 | 0.00 | 31 | 1021.8 |
| 20260503183558 | 16 | 181 | 1.6 | 9.7 | 0.00 | 0.00 | 0.00 | 30 | 1022.1 |
| 20260503182558 | 16 | 239 | 4.8 | 9.7 | 0.00 | 0.00 | 0.00 | 29 | 1022.1 |
| 20260503181557 | 16 | 261 | 3.2 | 11.3 | 0.00 | 0.00 | 0.00 | 30 | 1022.0 |
| 20260503180558 | 16 | 235 | 3.2 | 4.8 | 0.00 | 0.00 | 0.00 | 31 | 1022.1 |
| 20260503175559 | 15 | 284 | 3.2 | 12.9 | 0.00 | 0.00 | 0.00 | 33 | 1022.2 |
| 20260503174558 | 15 | 191 | 4.8 | 9.7 | 0.00 | 0.00 | 0.00 | 33 | 1022.2 |
| 20260503173558 | 15 | 274 | 3.2 | 11.3 | 0.00 | 0.00 | 0.00 | 34 | 1022.3 |
| 20260503172558 | 15 | 234 | 4.8 | 11.3 | 0.00 | 0.00 | 0.00 | 33 | 1022.5 |
| 20260503171558 | 16 | 328 | 1.6 | 4.8 | 0.00 | 0.00 | 0.00 | 34 | 1022.5 |
| 20260503170558 | 13 | 121 | 1.6 | 6.4 | 0.00 | 0.00 | 0.00 | 34 | 1022.8 |
| 20260503150618 | 11 | 316 | 3.2 | 12.9 | 0.00 | 0.00 | 0.00 | 39 | 1024.0 |
| 20260503130618 | 7 | 307 | 0.0 | 3.2 | 0.00 | 0.00 | 0.00 | 51 | 1024.5 |
| 20260503110600 | 3 | 208 | 0.0 | 3.2 | 0.00 | 0.00 | 0.00 | 67 | 1024.1 |
| 20260503081618 | 5 | 0.0 | 0.0 | 0.00 | 0.00 | 0.00 | 65 | 1022.8 | |
| 20260503080617 | 5 | 238 | 0.0 | 3.2 | 0.00 | 0.00 | 0.00 | 63 | 1022.7 |
| 20260503072558 | 5 | 0.0 | 0.0 | 0.00 | 0.00 | 0.00 | 63 | 1022.3 | |
| 20260503071558 | 5 | 211 | 1.6 | 4.8 | 0.00 | 0.00 | 0.00 | 62 | 1022.3 |
| 20260503070558 | 5 | 249 | 0.0 | 1.6 | 0.00 | 0.00 | 0.00 | 65 | 1022.2 |
| 20260503054557 | 6 | 265 | 0.0 | 3.2 | 0.00 | 0.00 | 0.00 | 61 | 1022.0 |
| 20260503053557 | 6 | 0.0 | 3.2 | 0.00 | 0.00 | 0.00 | 61 | 1021.9 | |
| 20260503052618 | 5 | 286 | 1.6 | 12.9 | 0.00 | 0.00 | 0.00 | 64 | 1021.8 |
| 20260503051559 | 5 | 217 | 1.6 | 3.2 | 0.00 | 0.00 | 0.00 | 64 | 1021.7 |
| 20260503050558 | 5 | 0.0 | 0.0 | 0.00 | 0.00 | 0.00 | 64 | 1018.1 | |
| 20260503045558 | 6 | 214 | 0.0 | 1.6 | 0.00 | 0.00 | 0.00 | 62 | 1022.0 |
| 20260503044558 | 6 | 229 | 1.6 | 3.2 | 0.00 | 0.00 | 0.00 | 64 | 1022.0 |
| 20260503043558 | 6 | 79 | 0.0 | 1.6 | 0.00 | 0.00 | 0.00 | 61 | 1022.0 |
| 20260503042558 | 6 | 78 | 0.0 | 3.2 | 0.00 | 0.00 | 0.00 | 61 | 1021.9 |
| 20260503041617 | 6 | 259 | 0.0 | 3.2 | 0.00 | 0.00 | 0.00 | 62 | 1022.0 |
| 20260503040618 | 6 | 0.0 | 0.0 | 0.00 | 0.00 | 0.00 | 63 | 1022.0 | |
| 20260503035558 | 6 | 15 | 1.6 | 4.8 | 0.00 | 0.00 | 0.00 | 64 | 1021.9 |
| 20260503034558 | 6 | 309 | 0.0 | 3.2 | 0.00 | 0.00 | 0.00 | 64 | 1022.0 |
| 20260503033558 | 6 | 0.0 | 0.0 | 0.00 | 0.00 | 0.00 | 62 | 1021.7 | |
| 20260503032559 | 7 | 305 | 0.0 | 1.6 | 0.00 | 0.00 | 0.00 | 61 | 1021.7 |
| 20260503031558 | 7 | 8 | 0.0 | 3.2 | 0.00 | 0.00 | 0.00 | 60 | 1021.7 |
| 20260503030557 | 7 | 0.0 | 6.4 | 0.00 | 0.00 | 0.00 | 59 | 1021.8 |